TimeAKDT,TemperatureF,Dew PointF,Humidity,Sea Level PressureIn,VisibilityMPH,Wind Direction,Wind SpeedMPH,Gust SpeedMPH,PrecipitationIn,Events,Conditions,WindDirDegrees,DateUTC
12:56 AM,35.1,28.9,78,30.21,10.0,SSE,8.1,-,N/A,,Overcast,150,2013-05-06 08:56:00
1:56 AM,35.1,30.0,82,30.20,10.0,South,6.9,-,N/A,,Mostly Cloudy,170,2013-05-06 09:56:00
2:18 AM,35.6,30.2,81,30.18,10.0,SSE,6.9,-,N/A,,Overcast,160,2013-05-06 10:18:00
2:35 AM,35.6,30.2,81,30.17,10.0,SSE,6.9,-,N/A,,Overcast,160,2013-05-06 10:35:00
2:56 AM,35.1,30.0,82,30.19,10.0,SSE,8.1,-,N/A,,Overcast,160,2013-05-06 10:56:00
3:56 AM,35.1,30.9,85,30.17,10.0,Calm,Calm,-,N/A,,Overcast,0,2013-05-06 11:56:00
4:43 AM,35.6,30.2,81,30.15,10.0,South,4.6,-,N/A,,Overcast,190,2013-05-06 12:43:00
4:56 AM,35.1,30.9,85,30.16,10.0,Calm,Calm,-,N/A,,Overcast,0,2013-05-06 12:56:00
5:35 AM,35.6,32.0,87,30.14,10.0,West,3.5,-,0.00,Rain,Light Rain,260,2013-05-06 13:35:00
5:56 AM,34.0,30.9,89,30.16,10.0,West,3.5,-,0.00,Rain,Light Rain,270,2013-05-06 13:56:00
6:56 AM,34.0,30.9,89,30.14,10.0,Calm,Calm,-,0.00,Rain,Light Rain,0,2013-05-06 14:56:00
7:20 AM,33.8,32.0,93,30.13,10.0,WNW,4.6,-,0.00,Rain,Light Rain,290,2013-05-06 15:20:00
7:39 AM,33.8,32.0,93,30.12,10.0,West,4.6,-,0.00,Rain,Light Rain,270,2013-05-06 15:39:00
7:56 AM,34.0,32.0,92,30.14,10.0,WNW,3.5,-,0.00,,Overcast,300,2013-05-06 15:56:00
8:56 AM,34.0,30.9,89,30.14,8.0,Calm,Calm,-,0.00,Snow,Light Snow,0,2013-05-06 16:56:00
9:56 AM,35.1,32.0,89,30.13,10.0,NW,3.5,-,0.01,Rain,Light Rain,320,2013-05-06 17:56:00
10:56 AM,35.1,33.1,92,30.13,10.0,NW,3.5,-,0.00,,Overcast,310,2013-05-06 18:56:00
11:56 AM,37.0,33.1,86,30.13,10.0,WNW,4.6,-,0.01,,Overcast,300,2013-05-06 19:56:00
12:56 PM,37.9,33.1,83,30.12,10.0,East,6.9,-,0.00,Rain,Light Rain,90,2013-05-06 20:56:00
1:56 PM,37.9,34.0,86,30.12,10.0,East,3.5,-,0.00,Rain,Light Rain,80,2013-05-06 21:56:00
2:56 PM,39.9,33.1,77,30.11,10.0,East,3.5,-,0.01,Rain,Light Rain,80,2013-05-06 22:56:00
3:56 PM,41.0,33.1,73,30.10,10.0,ENE,6.9,-,0.00,,Mostly Cloudy,60,2013-05-06 23:56:00
4:56 PM,39.9,35.1,83,30.09,10.0,East,6.9,-,0.00,,Overcast,80,2013-05-07 00:56:00
5:56 PM,39.9,34.0,79,30.08,10.0,ESE,11.5,-,0.01,Rain,Light Rain,120,2013-05-07 01:56:00
6:56 PM,39.9,34.0,79,30.08,10.0,East,8.1,-,0.00,Rain,Light Rain,100,2013-05-07 02:56:00
7:56 PM,39.9,32.0,73,30.08,10.0,East,11.5,17.3,0.00,,Overcast,100,2013-05-07 03:56:00
8:56 PM,39.0,33.1,79,30.08,10.0,East,12.7,-,0.00,,Overcast,90,2013-05-07 04:56:00
9:56 PM,39.0,33.1,79,30.07,10.0,East,11.5,-,0.00,Rain,Light Rain,90,2013-05-07 05:56:00
10:56 PM,39.0,33.1,79,30.09,10.0,East,16.1,-,0.00,Rain,Light Rain,90,2013-05-07 06:56:00
11:56 PM,39.0,33.1,79,30.09,10.0,East,15.0,21.9,0.00,Rain,Light Rain,90,2013-05-07 07:56:00